Location: Unspecified
(48.2082°N, 0.0000°E)
Time: 18:28:16
(UTC+00:00)

S-56A Canister/Altair - Pass Details

Date: 21 June 2019
Orbit: 633 x 2499 km, 38.9° (Epoch: 22 August)

Event Time Altitude Azimuth Distance (km) Brightness Sun altitude
Rises 16:07:11 0° 229° (SW) 5,023 12.4 36.1°
Reaches altitude 10° 16:11:25 10° 220° (SW) 3,698 11.7 35.4°
Maximum altitude 16:18:46 29° 165° (SSE) 1,997 9.8 34.2°
Drops below altitude 10° 16:24:07 10° 107° (ESE) 2,636 9.9 33.3°
Sets 16:26:37 0° 96° (E) 3,387 10.3 32.9°
